GS0511 Weather Reports


time (UTC)temp
F
wind
direction
speed
knots
gust
knots
rain 1hr
in
rain 24hr
in
rain mn
in
humidity
%
barometer
mb
20260906115958 61 178 0.0 0.0 0.00 0.00 0.00 99 1019.3
20260906114456 59 178 0.0 0.0 0.00 0.00 0.00 99 1019.0
20260906112956 58 178 0.0 0.0 0.00 0.00 0.00 99 1018.9
20260906111456 57 178 0.0 0.0 0.00 0.00 0.00 98 1018.9
20260906105959 57 178 0.0 0.0 0.00 0.00 0.00 99 1018.7
20260906104456 57 178 0.0 0.0 0.00 0.00 0.00 98 1018.5
20260906101455 57 178 0.0 0.0 0.00 0.00 0.00 98 1018.2
20260906095959 57 178 0.0 0.0 0.00 0.00 0.00 98 1018.1
20260906094456 58 178 0.0 0.0 0.00 0.00 0.00 98 1018.0
20260906092955 58 178 0.0 0.0 0.00 0.00 0.00 98 1017.7
20260906091456 58 178 0.0 0.0 0.00 0.00 0.00 98 1017.8
20260906085958 58 178 0.0 0.0 0.00 0.00 0.00 98 1017.5
20260906084455 58 178 0.0 0.0 0.00 0.00 0.00 98 1017.2
20260906082956 58 178 0.0 0.0 0.00 0.00 0.00 98 1017.0
20260906081455 59 178 0.0 0.0 0.00 0.00 0.00 98 1017.0
20260906075959 59 178 0.0 0.0 0.00 0.00 0.00 98 1017.0
20260906074455 59 178 0.0 0.0 0.00 0.00 0.00 97 1017.1
20260906072955 60 178 0.0 0.0 0.00 0.00 0.00 98 1017.0
20260906065958 60 178 0.0 0.0 0.00 0.00 0.00 97 1017.0
20260906064455 60 178 0.0 0.0 0.00 0.00 0.00 98 1016.9
20260906062954 61 178 0.0 0.0 0.00 0.00 0.00 98 1017.1
20260906061455 61 178 0.0 0.0 0.00 0.00 0.00 97 1017.0
20260906055957 61 178 0.0 0.0 0.00 0.00 0.00 98 1017.0
20260906054455 61 178 0.0 0.0 0.00 0.00 0.00 98 1017.1
20260906052955 60 178 0.0 0.0 0.00 0.00 0.00 97 1017.2
20260906051454 61 178 0.0 0.0 0.00 0.00 0.00 97 1017.0
20260906045958 61 178 0.0 0.0 0.00 0.00 0.00 97 1017.2
20260906044455 60 178 0.0 0.0 0.00 0.00 0.00 97 1017.1
20260906042956 60 178 0.0 0.0 0.00 0.00 0.00 97 1016.9
20260906041455 60 178 0.0 0.9 0.00 0.00 0.00 97 1016.9
20260906040003 60 178 0.0 0.0 0.00 0.00 0.00 96 1016.7
20260906034458 60 178 0.0 0.0 0.00 0.00 0.00 96 1016.9
20260906032958 61 178 0.0 0.0 0.00 0.00 0.00 96 1016.8
20260906031458 61 178 0.0 0.0 0.00 0.00 0.00 95 1016.8
20260906030001 62 178 0.0 0.0 0.00 0.00 0.00 95 1016.7
20260906024458 62 178 0.0 0.0 0.00 0.00 0.00 94 1016.7
20260906022958 63 178 0.0 0.0 0.00 0.00 0.00 94 1016.7
20260906020000 64 178 0.0 0.0 0.00 0.00 0.00 93 1016.5
20260906014457 64 178 0.0 0.0 0.00 0.00 0.00 93 1016.4
20260906012959 65 178 0.0 0.0 0.00 0.00 0.00 93 1016.3
20260906010000 65 178 0.0 0.0 0.00 0.00 0.00 92 1016.2
20260906004458 65 178 0.0 0.0 0.00 0.00 0.00 91 1016.3
20260906002957 65 178 0.0 0.0 0.00 0.00 0.00 91 1016.1
20260906001457 66 178 0.0 0.0 0.00 0.00 0.00 89 1015.9
20260906000001 66 178 0.0 0.9 0.00 0.00 0.00 87 1016.0
20260905234458 68 178 0.0 0.0 0.00 0.00 0.00 85 1016.2
20260905231457 70 178 0.0 1.7 0.00 0.00 0.00 79 1016.2
20260905230002 71 146 0.0 1.7 0.00 0.00 0.00 78 1016.2
20260905224457 72 67 0.9 2.6 0.00 0.00 0.00 74 1016.0
20260905222957 74 295 0.9 1.7 0.00 0.00 0.00 72 1016.1
20260905221459 74 355 0.9 2.6 0.00 0.00 0.00 71 1016.0
20260905220001 74 280 1.7 2.6 0.00 0.00 0.00 70 1016.0
20260905214457 74 17 0.9 2.6 0.00 0.00 0.00 70 1015.9
20260905212957 75 316 1.7 3.5 0.00 0.00 0.00 69 1015.8
20260905211457 75 63 0.9 4.3 0.00 0.00 0.00 65 1015.6
20260905210000 75 339 0.9 2.6 0.00 0.00 0.00 67 1015.5
20260905204457 75 128 0.9 3.5 0.00 0.00 0.00 67 1015.5
20260905202957 75 355 1.7 3.5 0.00 0.00 0.00 67 1015.4
20260905201458 75 324 1.7 3.5 0.00 0.00 0.00 68 1015.5
20260905200002 75 331 0.9 3.5 0.00 0.00 0.00 69 1015.4
20260905194459 74 332 1.7 4.3 0.00 0.00 0.00 68 1015.5
20260905192957 75 32 0.9 4.3 0.00 0.00 0.00 69 1015.5
20260905191457 74 344 1.7 3.5 0.00 0.00 0.00 67 1015.7
20260905190002 74 63 1.7 3.5 0.00 0.00 0.00 73 1015.7
20260905184457 73 78 1.7 2.6 0.00 0.00 0.00 69 1015.8
20260905182957 74 355 0.9 3.5 0.00 0.00 0.00 70 1015.4
20260905181457 74 64 0.0 1.7 0.00 0.00 0.00 69 1015.4
20260905174457 74 325 1.7 3.5 0.00 0.00 0.00 69 1015.4
20260905172956 74 315 0.9 4.3 0.00 0.00 0.00 69 1015.3
20260905171456 73 227 1.7 6.1 0.00 0.00 0.00 69 1015.4
20260905164457 73 294 1.7 3.5 0.00 0.00 0.00 70 1015.3
20260905162956 73 305 0.9 2.6 0.00 0.00 0.00 71 1015.5
20260905161456 73 264 1.7 3.5 0.00 0.00 0.00 71 1015.6
20260905155959 73 301 1.7 4.3 0.00 0.00 0.00 72 1015.6
20260905154457 72 340 1.7 4.3 0.00 0.00 0.00 72 1015.8
20260905151456 72 237 1.7 3.5 0.00 0.00 0.00 76 1015.9
20260905145959 72 312 1.7 7.0 0.00 0.00 0.00 75 1015.8
20260905144456 71 350 1.7 3.5 0.00 0.00 0.00 74 1015.9
20260905141456 69 355 0.9 1.7 0.00 0.00 0.00 82 1015.9
20260905140000 70 355 1.7 5.2 0.00 0.00 0.00 82 1015.8
20260905131457 67 315 0.9 2.6 0.00 0.00 0.00 90 1015.8
20260905125958 66 315 0.9 3.5 0.00 0.00 0.00 94 1016.0
20260905124456 65 341 0.9 2.6 0.00 0.00 0.00 98 1016.2
20260905122955 64 300 0.9 3.5 0.00 0.00 0.00 98 1015.9
20260905121455 63 211 0.0 1.7 0.00 0.00 0.00 99 1015.9